Weather History for Glasgow, MT

Change the Weather History Date:

Saturday, March 16, 2013

  Actual Average Record
Temperature  
Mean Temperature 17 °F 32 °F  
Max Temperature 20 °F 42 °F 71 °F (1926)
Min Temperature 13 °F 21 °F -18 °F (1906)
Degree Days  
Heating Degree Days 48 33  
Month to date heating degree days 615 592  
Since 1 July heating degree days 6822 6962  
Cooling Degree Days 0 0  
Month to date cooling degree days 0 0  
Year to date cooling degree days 0 0  
Moisture  
Dew Point 11 °F    
Average Humidity 81    
Maximum Humidity 88    
Minimum Humidity 73    
Precipitation  
Precipitation 0.04 in 0.01 in 0.39 in (1927)
Month to date precipitation 0.32 0.19  
Year to date precipitation 0.98 0.82  
Snow  
Snow 0.90 in 0.20 in 6.00 in (2011)
Month to date snowfall 5.3 2.7  
Since 1 July snowfall 42.6 29.7  
Snow Depth T in    
Sea Level Pressure  
Sea Level Pressure 30.12 in    
Wind  
Wind Speed 14 mph (ENE)    
Max Wind Speed 28 mph    
Max Gust Speed 31 mph    
Visibility 4 miles    
Events Snow    
T = Trace of Precipitation, MM = Missing Value Source: NWS Daily Summary

Daily Weather History Graph

Daily Weather History Graph

Search for Another Location

Airport:

Trip Planner

Search our weather history database for the weather conditions in past years. The results will help you decide how hot, cold, wet, or windy it might be!

Date:

Astronomy

Mar. 16, 2013 Rise Set
Actual Time 7:16 AM MDT 7:13 PM MDT
Civil Twilight 6:45 AM MDT 7:44 PM MDT
Nautical Twilight 6:09 AM MDT 8:21 PM MDT
Astronomical Twilight 5:32 AM MDT 8:58 PM MDT
Moon 9:25 AM MDT (3/16) No Moon Set
Length of Visible Light 12h 59m
Length of Day
11h 56m
Waxing Crescent, 23% of the Moon is Illuminated
Mar 16
Waxing Crescent
Mar 19
First Quarter
Mar 27
Full
Apr 2
Last Quarter
Apr 10
New

Hourly Weather History & Observations

Time (MDT) Temp. Windchill Dew Point Humidity Pressure Visibility Wind Dir Wind Speed Gust Speed Precip Events Conditions
12:38 AM 19.4 °F 6.6 °F 12.2 °F 74% 30.16 in 10.0 mi NNE 12.7 mph - N/A   Overcast
12:53 AM 19.0 °F 8.2 °F 12.0 °F 74% 30.26 in 10.0 mi NNE 9.2 mph - N/A   Overcast
1:10 AM 19.4 °F 9.5 °F 12.2 °F 74% 30.16 in 2.5 mi NNE 8.1 mph - 0.00 in Snow Light Snow
1:15 AM 19.4 °F 9.5 °F 12.2 °F 74% 30.16 in 1.2 mi NNE 8.1 mph - 0.00 in Snow Light Snow
1:37 AM 17.6 °F 8.2 °F 14.0 °F 86% 30.16 in 1.8 mi NE 6.9 mph - 0.01 in Snow Light Snow
1:43 AM 17.6 °F 10.7 °F 14.0 °F 86% 30.16 in 2.5 mi NE 4.6 mph - 0.01 in Snow Light Snow
1:53 AM 18.0 °F 9.8 °F 14.0 °F 84% 30.27 in 1.8 mi NNE 5.8 mph - 0.01 in Snow Light Snow
2:07 AM 17.6 °F 8.2 °F 12.2 °F 79% 30.16 in 3.0 mi NE 6.9 mph - 0.00 in Snow Light Snow
2:53 AM 18.0 °F 11.1 °F 10.9 °F 74% 30.27 in 7.0 mi North 4.6 mph - 0.00 in Snow Light Snow
3:03 AM 17.6 °F 12.3 °F 10.4 °F 73% 30.16 in 5.0 mi North 3.5 mph - 0.00 in Snow Light Snow
3:53 AM 17.1 °F 10.0 °F 12.0 °F 81% 30.26 in 7.0 mi North 4.6 mph - 0.00 in   Overcast
4:53 AM 17.1 °F 8.7 °F 12.9 °F 84% 30.23 in 10.0 mi NNW 5.8 mph - 0.00 in   Overcast
5:53 AM 15.1 °F 5.2 °F 10.9 °F 84% 30.23 in 10.0 mi NNW 6.9 mph - N/A   Clear
6:53 AM 16.0 °F 7.4 °F 10.9 °F 81% 30.22 in 10.0 mi North 5.8 mph - N/A   Overcast
7:53 AM 16.0 °F 4.4 °F 9.0 °F 74% 30.22 in 10.0 mi NE 9.2 mph - N/A   Overcast
8:06 AM 15.8 °F 5.1 °F 8.6 °F 73% 30.10 in 10.0 mi NNE 8.1 mph - N/A   Overcast
8:53 AM 17.1 °F 5.8 °F 10.9 °F 77% 30.23 in 10.0 mi NE 9.2 mph - N/A   Overcast
9:30 AM 17.6 °F 5.7 °F 10.4 °F 73% 30.10 in 1.8 mi NE 10.4 mph - 0.00 in Snow Light Snow
9:53 AM 17.1 °F 5.8 °F 10.9 °F 77% 30.24 in 1.5 mi ENE 9.2 mph - 0.00 in Snow Light Snow
10:06 AM 17.6 °F 6.4 °F 12.2 °F 79% 30.11 in 1.2 mi ENE 9.2 mph - 0.01 in Snow Light Snow
10:13 AM 17.6 °F 6.4 °F 12.2 °F 79% 30.11 in 1.8 mi East 9.2 mph - 0.01 in Snow Light Snow
10:20 AM 17.6 °F 5.7 °F 12.2 °F 79% 30.11 in 2.0 mi ENE 10.4 mph - 0.01 in Snow Light Snow
10:40 AM 15.8 °F 2.1 °F 10.4 °F 79% 30.11 in 1.2 mi ENE 12.7 mph - 0.01 in Snow Light Snow
10:53 AM 16.0 °F 2.3 °F 10.0 °F 77% 30.24 in 1.8 mi ENE 12.7 mph - 0.01 in Snow Light Snow
11:02 AM 15.8 °F 2.1 °F 10.4 °F 79% 30.11 in 2.0 mi ENE 12.7 mph - 0.00 in Snow Light Snow
11:53 AM 16.0 °F 1.7 °F 10.0 °F 77% 30.24 in 1.2 mi East 13.8 mph - 0.01 in Snow Light Snow
12:10 PM 17.6 °F 3.2 °F 10.4 °F 73% 30.10 in 1.2 mi East 15.0 mph - 0.00 in Snow Light Snow
12:17 PM 15.8 °F 0.9 °F 10.4 °F 79% 30.10 in 1.5 mi East 15.0 mph - 0.00 in Snow Light Snow
12:26 PM 17.6 °F 2.2 °F 10.4 °F 73% 30.10 in 3.0 mi East 17.3 mph - 0.00 in Snow Light Snow
12:53 PM 17.1 °F 1.5 °F 10.0 °F 74% 30.23 in 2.5 mi East 17.3 mph - 0.00 in Snow Light Snow
1:04 PM 17.6 °F 2.7 °F 10.4 °F 73% 30.10 in 3.0 mi East 16.1 mph - 0.00 in Snow Light Snow
1:12 PM 17.6 °F 2.2 °F 10.4 °F 73% 30.09 in 1.8 mi East 17.3 mph - 0.00 in Snow Light Snow
1:16 PM 17.6 °F 2.2 °F 10.4 °F 73% 30.09 in 1.2 mi East 17.3 mph - 0.00 in Snow Light Snow
1:41 PM 17.6 °F 1.7 °F 10.4 °F 73% 30.08 in 1.8 mi East 18.4 mph - 0.00 in Snow Light Snow
1:46 PM 17.6 °F 2.2 °F 10.4 °F 73% 30.08 in 3.0 mi East 17.3 mph - 0.00 in Snow Light Snow
1:53 PM 17.1 °F 1.5 °F 10.0 °F 74% 30.20 in 7.0 mi East 17.3 mph - 0.00 in Snow Light Snow
2:16 PM 17.6 °F 2.2 °F 10.4 °F 73% 30.07 in 1.8 mi East 17.3 mph - 0.00 in Snow Light Snow
2:40 PM 17.6 °F 1.3 °F 10.4 °F 73% 30.05 in 1.8 mi East 19.6 mph - 0.01 in Snow Light Snow
2:47 PM 17.6 °F 1.3 °F 10.4 °F 73% 30.04 in 2.0 mi East 19.6 mph - 0.01 in Snow Light Snow
2:48 PM 17.1 °F 0.6 °F 10.0 °F 74% 30.17 in 2.0 mi East 19.6 mph - 0.01 in Snow Light Snow
3:17 PM 17.6 °F 1.7 °F 10.4 °F 73% 30.03 in 1.8 mi ESE 18.4 mph - 0.00 in Snow Light Snow
3:29 PM 15.8 °F -1.1 °F 10.4 °F 79% 30.03 in 1.5 mi East 19.6 mph - 0.00 in Snow Light Snow
3:37 PM 15.8 °F -1.1 °F 10.4 °F 79% 30.03 in 1.0 mi ESE 19.6 mph - 0.00 in Snow Light Snow
3:46 PM 15.8 °F -0.6 °F 10.4 °F 79% 30.03 in 0.8 mi East 18.4 mph - 0.00 in Snow Light Snow
3:53 PM 15.1 °F -2.0 °F 10.0 °F 80% 30.16 in 0.8 mi East 19.6 mph - 0.00 in Snow Light Snow
4:14 PM 15.8 °F -1.1 °F 10.4 °F 79% 30.03 in 1.2 mi ESE 19.6 mph - 0.01 in Snow Light Snow
4:18 PM 15.8 °F -1.1 °F 10.4 °F 79% 30.03 in 1.5 mi East 19.6 mph - 0.01 in Snow Light Snow
4:31 PM 15.8 °F -1.5 °F 8.6 °F 73% 30.02 in 2.0 mi ESE 20.7 mph - 0.01 in Snow Light Snow
4:53 PM 15.1 °F -2.5 °F 9.0 °F 77% 30.16 in 3.0 mi ESE 20.7 mph - 0.01 in Snow Light Snow
5:02 PM 15.8 °F -1.1 °F 8.6 °F 73% 30.02 in 2.5 mi ESE 19.6 mph - 0.00 in Snow Light Snow
5:22 PM 15.8 °F -1.1 °F 8.6 °F 73% 30.01 in 3.0 mi ESE 19.6 mph - 0.00 in Snow Light Snow
5:53 PM 14.0 °F -4.3 °F 8.1 °F 77% 30.11 in 7.0 mi East 21.9 mph 26.5 mph 0.00 in Snow Light Snow
6:45 PM 12.2 °F -6.7 °F 8.6 °F 85% 29.97 in 10.0 mi ESE 21.9 mph 27.6 mph 0.00 in   Overcast
6:53 PM 12.9 °F -4.4 °F 8.1 °F 81% 30.10 in 10.0 mi ESE 18.4 mph 27.6 mph 0.00 in   Overcast
7:53 PM 14.0 °F -3.9 °F 9.0 °F 80% 30.07 in 10.0 mi ESE 20.7 mph - N/A   Overcast
8:53 PM 14.0 °F -3.0 °F 10.0 °F 84% 30.06 in 10.0 mi ESE 18.4 mph - N/A   Overcast
9:53 PM 14.0 °F -3.4 °F 10.0 °F 84% 29.99 in 10.0 mi ESE 19.6 mph - N/A   Overcast
10:53 PM 15.1 °F -2.9 °F 10.9 °F 84% 29.96 in 10.0 mi ESE 21.9 mph - N/A   Overcast
11:53 PM 15.1 °F -1.1 °F 10.9 °F 84% 29.94 in 10.0 mi ESE 17.3 mph - N/A   Overcast